Temperature
22 20 20 20 21 22 22 22 21 22 23 23 21 21 20 20 19 18 18 18 18 18 18 18 18 18 18 18 17 17 17 17 17 17 17 17 17 17 17 17 17 16 16 16
20 20 21 22 22 22 22 22 21 22 23 22 21 21 20 19 19 19 18 18 18 18 18 18 18 17 18 18 18 17 17 17 17 17 18 18 18 17 17 17 16 16 16 16
21 21 23 23 23 23 22 22 22 22 22 21 21 21 20 19 19 19 19 18 18 18 18 18 17 17 17 18 17 17 17 17 17 17 17 17 17 17 17 17 16 16 16 16
20 21 23 23 23 23 22 23 23 23 21 20 20 19 20 19 18 18 18 18 18 18 18 18 18 17 17 17 17 17 17 17 17 17 17 17 17 17 17 17 16 16 16 15
20 22 22 23 23 23 23 22 22 21 20 19 19 19 19 18 19 19 18 18 18 18 18 18 18 18 18 17 17 17 17 17 17 17 17 17 17 17 17 17 16 16 16 15
21 23 23 23 24 24 23 21 20 17 17 19 19 19 19 18 19 19 18 18 18 18 18 18 18 18 18 17 17 17 17 17 17 17 17 17 17 17 17 17 16 16 16 16
22 22 23 24 24 24 22 20 19 20 18 19 18 18 18 19 19 19 18 19 18 18 18 18 18 18 17 17 17 17 17 17 17 17 17 17 17 17 17 17 17 16 16 16
21 21 22 23 23 22 21 20 19 20 19 18 18 18 19 20 19 20 19 19 19 18 18 18 18 18 18 18 18 17 17 17 17 17 17 17 17 17 17 17 17 17 16 16
20 20 23 23 23 23 21 19 19 18 18 18 18 18 18 19 19 19 19 18 18 19 19 19 19 18 18 18 18 18 18 17 17 17 17 17 17 17 17 17 17 17 16 16
20 21 22 23 24 23 22 19 17 17 18 19 19 19 19 20 20 19 18 18 18 19 19 19 19 19 18 18 18 18 18 18 18 18 17 17 17 17 17 17 17 17 16 16
20 20 21 22 23 22 21 20 17 16 17 18 19 19 19 19 19 18 18 18 19 19 19 19 19 19 19 18 18 18 18 18 18 18 18 17 17 17 17 17 17 17 16 16
18 17 18 20 21 21 21 19 17 19 18 16 17 19 20 19 18 18 18 19 19 20 20 20 20 19 19 19 19 19 18 18 18 18 18 17 17 17 17 17 17 17 16 16
18 17 18 19 19 20 20 19 17 16 16 15 17 19 19 18 18 18 18 19 19 20 20 20 20 20 19 19 19 19 19 19 18 18 18 18 17 17 17 17 17 17 17 16
17 16 17 19 19 19 20 19 17 17 16 16 17 19 19 18 17 17 18 18 19 19 20 20 20 20 19 19 19 19 19 19 18 18 18 18 18 18 17 17 17 17 17 16
17 16 17 17 18 19 19 19 18 18 17 18 18 18 18 18 17 17 18 18 18 18 18 19 19 19 19 19 19 19 19 19 19 18 18 18 18 18 17 17 17 17 17 16
15 16 17 18 18 19 19 19 19 19 19 18 19 18 17 17 17 17 17 17 17 18 18 18 19 19 19 19 19 19 19 19 19 18 18 18 18 18 18 17 17 17 17 16
14 15 16 16 18 18 18 19 19 19 19 19 18 18 17 16 16 16 16 16 17 17 17 17 18 18 19 19 19 19 19 19 18 18 18 18 18 18 18 17 17 17 16 16
13 13 13 14 16 17 17 18 19 19 18 18 18 17 16 15 15 15 16 16 16 16 17 17 18 18 18 18 19 19 19 19 18 18 18 18 17 17 17 17 17 17 16 16
12 13 13 13 15 16 17 17 17 17 17 17 16 16 15 14 15 14 15 15 15 16 16 16 17 17 18 18 18 18 18 18 17 17 17 17 17 17 17 17 17 16 16 16
12 12 13 13 15 16 17 17 17 17 17 16 16 15 15 15 15 14 14 14 15 15 16 16 16 16 17 17 17 17 17 17 17 17 17 17 16 16 16 16 16 16 16 16
13 13 13 13 14 15 16 16 16 17 17 16 15 15 15 14 14 14 14 14 15 15 15 15 16 16 16 16 16 16 16 16 16 16 16 16 16 16 15 15 15 15 15 15
13 13 13 13 14 15 15 15 15 15 15 15 15 15 14 13 13 13 13 13 14 14 14 15 15 15 15 15 16 15 15 15 15 15 15 15 15 15 14 14 14 14 14 14
12 12 12 13 13 13 13 14 14 14 14 14 14 14 14 13 12 12 12 13 13 13 13 14 14 14 14 14 14 14 14 14 14 14 14 14 14 14 14 13 13 13 13 13
12 12 12 12 13 13 13 13 14 14 14 14 14 14 13 13 12 12 12 12 12 13 13 13 13 13 13 13 13 13 13 13 13 13 13 13 13 13 13 13 12 12 12 12
12 12 12 12 12 13 13 13 13 13 13 13 13 13 13 12 12 12 12 12 12 12 12 12 12 12 12 12 12 12 12 12 12 12 12 12 12 12 12 12 12 11 11 11
11 12 12 12 12 12 12 12 13 13 13 13 13 12 12 13 12 12 12 12 12 12 12 12 12 12 12 12 12 12 12 12 12 12 12 11 11 11 11 11 11 11 11 11
Wind_Speed
4 3 5 7 7 6 4 5 10 11 6 2 3 5 5 1 4 6 6 7 7 6 5 6 7 9 10 10 10 10 10 9 9 7 6 5 5 4 4 5 8 10 10 11
3 6 11 7 5 5 5 6 9 9 4 1 3 5 2 1 3 5 7 8 7 6 6 7 7 8 9 10 11 11 11 11 10 8 6 4 4 4 3 4 6 9 10 10
10 8 4 5 4 4 6 6 7 7 4 4 3 6 2 1 1 2 4 6 7 9 9 9 8 9 9 10 11 11 11 10 10 9 6 6 5 4 3 3 3 5 9 9
7 8 5 6 7 6 7 6 6 4 1 4 3 4 6 2 2 3 4 5 7 7 8 9 9 10 10 10 9 9 9 9 9 10 10 10 7 5 5 4 4 4 7 8
9 6 7 8 9 8 7 0 2 1 2 2 3 1 8 2 4 5 5 6 7 8 9 9 10 10 9 10 10 9 9 9 9 10 10 10 7 5 4 5 6 4 4 5
8 5 6 8 5 6 4 5 6 5 5 2 2 1 7 4 6 5 5 6 7 8 8 8 7 7 7 8 9 9 10 10 10 10 10 9 10 9 8 7 6 5 3 3
6 6 6 5 3 1 4 5 4 5 4 6 2 2 9 7 6 6 6 7 7 8 9 8 8 8 9 10 10 10 11 10 10 10 10 10 10 10 10 9 8 7 4 4
4 7 5 6 9 8 6 9 7 5 5 6 2 5 8 5 3 4 4 5 6 7 8 9 9 9 10 11 11 11 12 10 10 10 10 9 9 8 7 8 8 8 7 6
7 7 5 4 5 9 7 6 7 7 3 2 6 7 9 2 2 2 2 4 6 7 8 9 9 9 9 10 10 11 11 10 10 10 9 9 9 9 9 8 8 7 6 6
9 5 5 4 2 1 5 8 6 6 6 4 6 6 6 6 4 4 3 4 6 7 7 8 8 9 8 9 9 9 10 10 9 9 9 9 9 9 9 9 9 8 8 7
5 5 5 3 3 5 4 5 5 5 5 6 4 8 7 7 5 5 5 5 6 8 9 9 8 8 8 7 8 9 9 8 8 9 8 8 8 8 8 9 9 9 8 8
2 4 3 6 5 2 5 7 8 6 5 6 5 9 5 4 4 4 4 3 4 7 8 8 8 7 7 8 9 9 9 9 9 9 8 7 7 8 9 10 9 8 8 8
3 5 2 6 5 2 1 4 5 5 5 6 5 7 2 2 1 2 3 3 3 5 7 7 7 8 8 9 9 9 9 9 8 8 8 7 8 10 10 9 8 8 8 8
4 4 6 7 7 4 3 3 5 6 5 6 8 8 5 2 2 2 2 3 4 5 6 7 7 7 7 7 8 8 8 8 8 9 9 9 9 10 9 8 8 8 8 8
4 4 5 7 7 5 6 7 7 7 8 9 9 8 8 6 5 3 3 4 5 5 5 5 6 6 6 6 6 8 8 8 9 9 10 10 9 8 8 8 8 8 8 9
2 3 3 4 6 6 8 9 9 8 6 7 5 7 5 2 3 4 4 6 6 5 5 4 5 5 5 5 6 6 7 8 9 10 10 9 8 8 8 8 8 7 8 8
2 4 3 5 5 3 8 9 10 7 7 9 10 8 4 4 4 4 4 5 5 5 5 5 5 4 4 4 5 6 6 7 8 9 8 8 8 8 8 8 8 8 8 7
5 4 3 3 1 7 9 4 6 8 6 7 5 4 6 7 6 6 5 6 6 6 5 4 4 3 3 2 3 3 5 6 7 7 7 7 8 8 7 7 7 7 6 7
5 6 4 4 5 7 6 3 3 4 5 5 7 8 10 11 8 6 6 6 7 7 6 4 4 4 4 4 4 5 5 5 4 4 4 5 6 6 6 6 6 5 5 6
3 3 4 3 5 7 7 2 1 2 4 4 7 12 13 8 5 4 5 7 9 9 8 7 7 8 8 6 6 8 7 7 5 3 2 3 4 4 4 4 3 3 3 4
1 0 4 5 6 7 4 2 1 5 7 3 7 10 8 4 6 9 9 9 9 10 9 8 9 9 8 7 9 10 9 7 5 5 6 5 4 3 3 3 2 2 2 2
3 3 4 3 4 6 4 2 3 4 1 3 6 8 9 12 14 13 11 10 10 10 10 9 10 10 9 8 10 11 9 6 7 8 8 7 6 5 4 4 3 3 3 3
4 5 3 4 5 4 4 4 4 1 2 4 7 11 14 15 15 13 11 11 10 10 10 9 11 11 10 10 10 11 7 6 8 9 8 7 7 6 6 5 4 3 3 3
3 2 2 3 4 3 4 3 3 2 4 7 10 13 14 16 16 15 12 10 9 10 9 9 11 12 10 10 10 8 7 8 10 10 9 8 7 7 7 6 4 4 3 2
4 2 2 3 3 2 4 4 4 7 10 12 13 13 14 17 16 14 12 10 9 9 8 9 10 10 9 9 10 9 7 8 10 9 8 8 7 7 7 7 6 6 5 3
2 3 3 4 3 2 0 2 6 11 11 12 15 15 13 14 15 14 12 9 10 10 9 10 10 10 8 9 9 8 8 8 9 8 7 6 6 5 5 6 7 10 9 10
Wind_Direction
124 104 217 217 200 214 248 271 283 282 296 309 276 276 292 218 168 171 176 184 193 189 165 159 171 170 167 171 177 179 173 168 159 155 154 154 156 149 145 151 151 150 149 148
62 247 234 208 209 218 235 276 284 297 351 43 294 285 297 196 204 196 191 193 194 178 166 169 170 173 173 176 177 179 175 170 166 165 158 148 135 133 134 133 139 150 150 150
197 231 201 186 225 246 256 237 263 277 329 18 349 314 293 282 244 202 199 195 193 190 182 178 178 178 177 182 181 181 173 168 162 151 133 119 99 95 108 123 140 152 155 155
227 247 227 235 246 213 267 246 239 255 326 306 18 293 291 268 277 234 218 201 199 193 182 182 181 180 184 185 176 170 167 167 159 152 154 155 157 160 168 159 156 146 155 158
226 216 196 219 231 191 224 41 91 77 141 332 1 231 289 311 266 250 232 213 199 190 183 185 187 185 182 178 174 171 166 168 163 163 164 162 157 148 137 135 143 146 150 160
239 224 205 216 225 190 167 71 53 52 69 321 288 203 282 251 235 247 230 215 200 185 176 175 178 167 163 167 170 168 170 173 167 166 167 168 162 152 148 152 159 159 154 159
279 261 230 202 254 307 127 97 21 350 357 259 267 235 253 252 232 221 221 215 197 183 174 170 170 169 168 170 171 170 172 174 171 170 173 176 171 165 167 168 172 169 170 182
224 282 245 202 200 199 180 149 165 210 235 276 301 247 256 252 238 220 209 196 180 178 175 178 178 173 173 172 171 170 173 173 173 175 179 177 174 173 176 174 174 182 189 190
190 250 286 238 201 159 151 181 166 142 161 263 279 282 299 245 203 196 181 170 186 185 179 180 176 171 172 171 170 171 170 171 176 178 176 180 179 178 180 179 179 186 189 187
168 237 285 291 114 98 154 146 112 132 158 241 284 278 258 259 226 186 186 192 192 180 174 177 178 176 175 175 169 166 169 174 174 175 180 187 186 186 182 179 185 188 188 184
150 191 294 351 187 199 126 122 122 129 156 167 246 269 232 228 217 202 206 203 185 179 178 178 180 179 172 166 165 169 174 171 173 180 184 181 185 187 182 186 192 190 184 183
133 139 249 268 266 235 182 174 153 160 207 180 190 262 276 218 213 198 206 203 181 173 173 173 170 166 167 171 173 179 181 183 184 181 180 187 187 184 188 194 196 191 188 190
128 114 39 340 338 348 137 153 155 134 128 159 181 259 305 72 137 197 190 180 161 159 157 156 158 167 177 180 181 184 186 189 182 175 180 187 190 187 192 195 194 192 191 192
123 134 171 204 230 250 251 198 161 140 159 196 218 244 277 250 211 214 183 164 146 149 155 157 162 169 176 180 183 185 188 184 178 177 183 189 192 193 196 194 192 193 191 191
112 181 216 232 245 243 242 235 201 194 194 193 222 225 245 229 203 186 159 139 122 113 129 152 160 165 166 171 180 184 186 182 181 182 190 198 196 191 191 192 194 193 194 200
99 190 217 261 252 246 250 245 224 217 208 214 225 246 236 180 129 124 129 130 127 127 130 126 130 144 158 170 178 184 189 186 179 186 196 196 190 188 192 196 194 192 197 200
175 167 180 252 266 276 247 227 213 208 204 187 209 221 158 141 131 132 124 121 127 121 116 117 120 131 151 171 179 186 189 177 178 188 193 193 190 193 199 200 195 200 203 201
166 156 173 225 192 228 244 246 211 202 214 203 197 167 155 141 114 86 87 107 109 107 104 102 104 106 109 121 146 161 158 164 176 187 192 194 193 198 195 189 197 202 197 202
171 160 167 178 217 262 278 248 194 190 230 205 175 147 134 127 102 74 68 86 97 92 88 84 83 84 79 78 91 104 108 121 138 164 180 182 183 188 184 190 199 198 195 202
99 132 164 186 204 232 245 251 236 130 254 213 168 158 155 144 134 133 96 87 86 80 77 75 76 75 70 61 81 94 91 92 92 95 107 127 145 159 172 184 189 182 188 206
9 166 203 214 230 256 276 307 103 187 236 189 168 163 157 144 132 124 108 91 84 81 76 75 75 70 61 63 82 84 79 76 70 70 73 76 89 115 129 129 127 131 149 144
215 222 217 197 221 254 333 342 209 241 303 140 135 131 119 113 112 109 105 97 88 81 72 71 75 68 55 58 78 79 71 68 74 77 75 71 70 74 82 91 88 95 112 115
216 211 211 208 233 278 299 280 291 283 143 128 123 124 127 121 115 110 103 97 88 81 75 71 76 69 56 52 66 74 59 62 72 71 67 65 65 63 64 76 81 79 83 98
262 202 205 255 270 294 322 346 8 74 116 120 123 126 124 119 117 113 108 100 91 82 75 74 76 71 57 50 56 60 58 64 70 68 61 57 60 58 56 58 61 69 65 76
255 216 209 245 268 346 9 27 72 96 104 108 107 109 115 117 115 113 108 103 95 84 74 74 77 72 59 52 53 47 51 67 71 66 60 56 55 59 58 55 50 55 49 57
251 216 208 233 212 161 51 39 96 106 107 111 111 105 104 112 113 109 105 100 94 86 80 77 73 71 62 59 53 43 46 66 73 66 57 56 57 57 61 64 58 53 57 53
Height
1484 1490 1494 1492 1490 1491 1493 1496 1497 1486 1477 1478 1480 1478 1474 1473 1473 1474 1475 1476 1478 1479 1482 1485 1488 1491 1494 1499 1502 1507 1511 1516 1520 1525 1529 1534 1537 1541 1544 1547 1550 1552 1553 1555
1488 1491 1483 1482 1484 1487 1491 1496 1493 1482 1475 1478 1480 1478 1474 1473 1473 1473 1474 1475 1477 1479 1482 1484 1486 1489 1492 1496 1500 1504 1509 1514 1519 1524 1528 1533 1537 1540 1544 1546 1549 1551 1553 1554
1487 1481 1476 1480 1484 1487 1488 1492 1489 1486 1479 1479 1482 1483 1477 1474 1473 1473 1474 1474 1475 1477 1479 1482 1484 1487 1491 1494 1497 1501 1506 1512 1517 1522 1527 1532 1536 1539 1542 1545 1548 1550 1552 1554
1482 1475 1476 1479 1481 1482 1489 1479 1479 1481 1489 1494 1490 1500 1482 1476 1474 1473 1473 1473 1473 1475 1477 1480 1482 1485 1488 1491 1496 1500 1505 1511 1516 1521 1525 1530 1534 1537 1540 1544 1547 1549 1551 1553
1478 1471 1473 1477 1474 1474 1478 1474 1478 1482 1489 1496 1494 1499 1489 1478 1475 1471 1470 1470 1471 1473 1475 1478 1480 1483 1486 1490 1495 1499 1504 1509 1514 1519 1524 1529 1533 1537 1540 1543 1546 1548 1550 1552
1469 1466 1467 1467 1465 1467 1470 1478 1484 1492 1498 1506 1497 1500 1494 1480 1472 1468 1467 1468 1469 1471 1474 1476 1479 1482 1486 1489 1494 1498 1503 1507 1512 1517 1522 1527 1531 1535 1538 1542 1544 1547 1549 1550
1473 1466 1462 1462 1467 1467 1472 1489 1508 1508 1515 1510 1497 1499 1491 1469 1465 1464 1464 1465 1467 1469 1472 1475 1478 1481 1484 1488 1492 1496 1501 1506 1510 1515 1520 1525 1529 1533 1537 1540 1543 1546 1547 1549
1482 1480 1462 1458 1463 1470 1474 1483 1505 1514 1516 1508 1497 1497 1478 1463 1462 1461 1462 1463 1465 1467 1469 1472 1475 1479 1483 1487 1491 1495 1499 1504 1509 1513 1518 1523 1527 1531 1535 1539 1542 1544 1546 1548
1480 1477 1458 1454 1454 1460 1473 1480 1479 1498 1504 1508 1501 1489 1472 1460 1460 1461 1461 1462 1463 1465 1467 1471 1475 1478 1481 1485 1489 1494 1498 1502 1507 1512 1517 1521 1525 1529 1533 1536 1539 1542 1544 1546
1466 1474 1461 1455 1454 1457 1461 1471 1487 1498 1509 1511 1499 1492 1482 1463 1460 1460 1460 1460 1462 1464 1467 1470 1474 1477 1480 1484 1488 1493 1497 1501 1506 1511 1515 1519 1523 1527 1530 1534 1537 1539 1542 1544
1462 1472 1467 1461 1461 1463 1466 1472 1481 1493 1495 1506 1507 1493 1462 1458 1456 1457 1458 1458 1459 1462 1465 1469 1472 1476 1480 1484 1488 1492 1496 1501 1505 1509 1513 1516 1520 1524 1527 1530 1534 1537 1539 1541
1462 1472 1477 1467 1457 1455 1458 1465 1476 1487 1492 1495 1499 1487 1453 1453 1454 1454 1455 1456 1458 1460 1464 1467 1471 1475 1479 1483 1487 1490 1494 1499 1503 1507 1510 1514 1517 1520 1523 1526 1530 1534 1536 1538
1462 1473 1482 1478 1471 1461 1460 1462 1467 1475 1486 1495 1496 1480 1453 1452 1453 1454 1455 1455 1457 1459 1462 1466 1470 1473 1477 1481 1485 1489 1493 1496 1501 1504 1508 1510 1512 1515 1519 1522 1527 1530 1532 1535
1458 1470 1478 1481 1474 1465 1463 1462 1465 1472 1483 1487 1481 1469 1456 1453 1453 1453 1454 1455 1456 1458 1461 1464 1468 1472 1475 1479 1483 1487 1491 1494 1498 1501 1505 1507 1509 1512 1516 1520 1523 1526 1529 1531
1458 1468 1467 1465 1461 1460 1459 1459 1460 1464 1466 1471 1465 1462 1454 1450 1450 1451 1452 1454 1456 1458 1461 1463 1466 1470 1473 1477 1481 1485 1488 1492 1495 1498 1501 1504 1507 1511 1514 1517 1520 1522 1525 1527
1460 1465 1465 1464 1457 1457 1457 1453 1454 1455 1456 1458 1457 1456 1448 1448 1449 1450 1451 1453 1456 1458 1460 1462 1465 1468 1471 1475 1478 1482 1485 1489 1492 1495 1499 1502 1505 1508 1511 1513 1516 1518 1520 1523
1463 1466 1469 1470 1459 1457 1461 1450 1448 1448 1446 1448 1453 1448 1446 1448 1448 1450 1452 1454 1455 1457 1460 1462 1464 1467 1469 1472 1476 1479 1482 1486 1489 1492 1495 1499 1502 1504 1507 1509 1511 1513 1516 1518
1462 1466 1471 1471 1465 1471 1451 1438 1437 1439 1439 1439 1440 1441 1444 1446 1449 1450 1452 1454 1455 1457 1459 1461 1463 1466 1468 1471 1473 1476 1479 1482 1485 1488 1492 1495 1498 1500 1503 1505 1507 1509 1511 1513
1457 1462 1469 1471 1469 1459 1446 1439 1438 1440 1440 1436 1438 1441 1444 1447 1449 1453 1454 1455 1455 1457 1459 1462 1464 1466 1468 1469 1471 1474 1476 1479 1483 1486 1488 1491 1494 1496 1499 1501 1503 1505 1507 1508
1457 1459 1465 1467 1465 1463 1445 1436 1435 1439 1442 1435 1435 1438 1442 1444 1450 1455 1456 1456 1457 1458 1461 1463 1465 1466 1468 1470 1471 1473 1475 1477 1480 1483 1486 1488 1491 1493 1495 1497 1499 1501 1502 1504
1460 1461 1463 1463 1460 1450 1439 1435 1435 1447 1440 1433 1433 1436 1440 1442 1446 1452 1455 1457 1459 1461 1463 1465 1466 1467 1469 1471 1472 1473 1475 1477 1480 1482 1484 1486 1488 1490 1492 1494 1496 1498 1499 1500
1460 1461 1460 1460 1460 1454 1438 1436 1438 1436 1432 1431 1433 1436 1440 1443 1447 1452 1456 1459 1461 1463 1466 1467 1468 1469 1471 1473 1474 1475 1476 1478 1480 1482 1484 1485 1487 1488 1490 1492 1494 1495 1496 1497
1456 1454 1453 1453 1451 1443 1438 1437 1434 1433 1433 1433 1435 1437 1441 1445 1449 1454 1458 1462 1465 1467 1468 1470 1471 1472 1474 1476 1477 1477 1480 1481 1482 1483 1485 1486 1487 1488 1490 1491 1492 1493 1494 1494
1450 1448 1449 1448 1443 1440 1437 1435 1434 1433 1433 1435 1437 1440 1443 1446 1451 1456 1461 1465 1468 1470 1472 1474 1475 1476 1478 1480 1481 1482 1483 1485 1485 1485 1486 1488 1488 1489 1490 1491 1491 1492 1492 1493
1448 1447 1446 1445 1442 1439 1437 1436 1435 1435 1436 1438 1441 1444 1447 1451 1455 1460 1464 1469 1471 1474 1477 1479 1479 1481 1483 1485 1485 1486 1488 1488 1488 1489 1489 1490 1491 1491 1491 1491 1491 1491 1492 1493
1445 1444 1444 1442 1439 1439 1439 1438 1438 1438 1440 1442 1444 1449 1453 1456 1459 1464 1469 1473 1475 1478 1481 1483 1484 1486 1488 1489 1490 1490 1491 1492 1491 1491 1492 1492 1493 1493 1493 1493 1493 1493 1494 1493